Location: *
(46.4000°N, 12.6667°E)
Time: 13:52:48
(UTC+00:00)

Envisat - Pass Details

Date: 06 March 2021
Orbit: 764 x 766 km, 98.1° (Epoch: 17 April)

Event Time Altitude Azimuth Distance (km) Brightness Sun altitude
Rises 04:46:12 0° 15° (NNE) 3,244 6.5 -10.0°
Reaches altitude 10° 04:48:32 10° 17° (NNE) 2,313 5.7 -9.6°
Maximum altitude 04:53:37 72° 102° (ESE) 807 3.3 -8.7°
Drops below altitude 10° 04:58:40 10° 187° (S) 2,295 5.4 -7.8°
Sets 05:00:59 0° 190° (S) 3,216 6.1 -7.4°
